Time,TemperatureF,DewpointF,PressureIn,WindDirection,WindDirectionDegrees,WindSpeedMPH,WindSpeedGustMPH,Humidity,HourlyPrecipIn,Conditions,Clouds,dailyrainin,SoftwareType,DateUTC
2013-07-04 00:01:00,49.8,44.1,29.62,NW,315,0.0,0.0,81,0.00,,,0.00,WUHU216HW,2013-07-04 08:01:00,
2013-07-04 00:06:00,49.6,44.0,29.62,NW,315,0.0,0.0,81,0.00,,,0.00,WUHU216HW,2013-07-04 08:06:00,
2013-07-04 00:11:00,49.6,44.0,29.62,NW,315,0.0,0.0,81,0.00,,,0.00,WUHU216HW,2013-07-04 08:11:00,
2013-07-04 00:16:00,49.6,44.3,29.62,NW,315,0.0,0.0,82,0.00,,,0.00,WUHU216HW,2013-07-04 08:16:00,
2013-07-04 00:21:00,49.4,44.1,29.62,NW,315,0.0,0.0,82,0.00,,,0.00,WUHU216HW,2013-07-04 08:21:00,
2013-07-04 00:26:00,49.2,43.9,29.62,NW,315,0.0,0.0,82,0.00,,,0.00,WUHU216HW,2013-07-04 08:26:00,
2013-07-04 00:31:00,49.2,43.9,29.62,NW,315,0.0,0.0,82,0.00,,,0.00,WUHU216HW,2013-07-04 08:31:00,
2013-07-04 00:36:00,49.2,43.9,29.62,NW,315,0.0,0.0,82,0.00,,,0.00,WUHU216HW,2013-07-04 08:36:00,
2013-07-04 00:41:00,49.1,44.0,29.62,NW,315,0.0,0.0,83,0.00,,,0.00,WUHU216HW,2013-07-04 08:41:00,
2013-07-04 00:46:00,49.1,44.0,29.62,NW,315,0.0,0.0,83,0.00,,,0.00,WUHU216HW,2013-07-04 08:46:00,
2013-07-04 00:51:00,49.1,44.0,29.62,NW,315,0.0,0.0,83,0.00,,,0.00,WUHU216HW,2013-07-04 08:51:00,
2013-07-04 00:56:00,49.1,44.0,29.62,ESE,113,0.0,0.0,83,0.00,,,0.00,WUHU216HW,2013-07-04 08:56:00,
2013-07-04 01:01:00,49.1,44.0,29.62,SE,135,0.0,0.0,83,0.00,,,0.00,WUHU216HW,2013-07-04 09:01:00,
2013-07-04 01:06:00,49.1,44.0,29.62,SE,135,0.0,0.0,83,0.00,,,0.00,WUHU216HW,2013-07-04 09:06:00,
2013-07-04 01:11:00,49.1,44.0,29.62,SE,135,0.0,0.0,83,0.00,,,0.00,WUHU216HW,2013-07-04 09:11:00,
2013-07-04 01:16:00,49.1,44.0,29.62,SE,135,0.0,0.0,83,0.00,,,0.00,WUHU216HW,2013-07-04 09:16:00,
2013-07-04 01:21:00,49.1,44.0,29.63,SE,135,0.0,0.0,83,0.00,,,0.00,WUHU216HW,2013-07-04 09:21:00,
2013-07-04 01:26:00,48.9,43.9,29.62,SE,135,0.0,0.0,83,0.00,,,0.00,WUHU216HW,2013-07-04 09:26:00,
2013-07-04 01:31:00,48.9,43.9,29.63,SE,135,0.0,0.0,83,0.00,,,0.00,WUHU216HW,2013-07-04 09:31:00,
2013-07-04 01:36:00,48.7,43.7,29.63,SE,135,0.0,0.0,83,0.00,,,0.00,WUHU216HW,2013-07-04 09:36:00,
2013-07-04 01:41:00,48.5,43.8,29.63,SE,135,0.0,0.0,84,0.00,,,0.00,WUHU216HW,2013-07-04 09:41:00,
2013-07-04 01:46:00,48.5,43.8,29.63,SE,135,0.0,0.0,84,0.00,,,0.00,WUHU216HW,2013-07-04 09:46:00,
2013-07-04 01:51:00,48.3,43.7,29.63,SE,135,0.0,0.0,84,0.00,,,0.00,WUHU216HW,2013-07-04 09:51:00,
2013-07-04 01:56:00,48.3,44.0,29.63,ESE,113,0.0,0.0,85,0.00,,,0.00,WUHU216HW,2013-07-04 09:56:00,
2013-07-04 02:01:00,48.0,43.7,29.63,East,90,0.0,0.0,85,0.00,,,0.00,WUHU216HW,2013-07-04 10:01:00,
2013-07-04 02:06:00,48.0,43.7,29.62,ENE,68,0.0,0.0,85,0.00,,,0.00,WUHU216HW,2013-07-04 10:06:00,
2013-07-04 02:11:00,48.0,43.7,29.62,ENE,68,0.0,0.0,85,0.00,,,0.00,WUHU216HW,2013-07-04 10:11:00,
2013-07-04 02:16:00,48.0,43.7,29.62,ENE,68,0.0,0.0,85,0.00,,,0.00,WUHU216HW,2013-07-04 10:16:00,
2013-07-04 02:21:00,47.8,43.5,29.63,ENE,68,0.0,0.0,85,0.00,,,0.00,WUHU216HW,2013-07-04 10:21:00,
2013-07-04 02:26:00,47.8,43.5,29.62,ENE,68,0.0,0.0,85,0.00,,,0.00,WUHU216HW,2013-07-04 10:26:00,
2013-07-04 02:31:00,47.8,43.5,29.62,ENE,68,0.0,0.0,85,0.00,,,0.00,WUHU216HW,2013-07-04 10:31:00,
2013-07-04 02:36:00,47.8,43.5,29.62,ENE,68,0.0,0.0,85,0.00,,,0.00,WUHU216HW,2013-07-04 10:36:00,
2013-07-04 02:41:00,47.8,43.5,29.62,ENE,68,0.0,0.0,85,0.00,,,0.00,WUHU216HW,2013-07-04 10:41:00,
2013-07-04 02:47:00,47.8,43.5,29.62,ENE,68,0.0,0.0,85,0.00,,,0.00,WUHU216HW,2013-07-04 10:47:00,
2013-07-04 02:52:00,47.8,43.5,29.62,ENE,68,0.0,0.0,85,0.00,,,0.00,WUHU216HW,2013-07-04 10:52:00,
2013-07-04 02:57:00,47.8,43.5,29.62,ENE,68,0.0,0.0,85,0.00,,,0.00,WUHU216HW,2013-07-04 10:57:00,
2013-07-04 03:02:00,47.8,43.8,29.62,ENE,68,0.0,0.0,86,0.02,,,0.02,WUHU216HW,2013-07-04 11:02:00,
2013-07-04 03:07:00,47.8,43.8,29.62,ENE,68,0.0,0.0,86,0.02,,,0.02,WUHU216HW,2013-07-04 11:07:00,
2013-07-04 03:12:00,47.6,43.6,29.62,ENE,68,0.0,0.0,86,0.02,,,0.02,WUHU216HW,2013-07-04 11:12:00,
2013-07-04 03:17:00,47.6,43.6,29.62,ENE,68,0.0,0.0,86,0.02,,,0.02,WUHU216HW,2013-07-04 11:17:00,
2013-07-04 03:22:00,47.6,43.6,29.62,ENE,68,0.0,0.0,86,0.02,,,0.02,WUHU216HW,2013-07-04 11:22:00,
2013-07-04 03:27:00,47.6,43.6,29.62,ENE,68,0.0,0.0,86,0.02,,,0.02,WUHU216HW,2013-07-04 11:27:00,
2013-07-04 03:32:00,47.6,43.6,29.62,ENE,68,0.0,0.0,86,0.02,,,0.02,WUHU216HW,2013-07-04 11:32:00,
2013-07-04 03:37:00,47.8,43.8,29.62,ENE,68,0.0,0.0,86,0.02,,,0.02,WUHU216HW,2013-07-04 11:37:00,
2013-07-04 03:42:00,47.8,43.8,29.62,ENE,68,0.0,0.0,86,0.02,,,0.02,WUHU216HW,2013-07-04 11:42:00,
2013-07-04 03:47:00,47.6,43.6,29.62,SSW,203,0.0,0.0,86,0.02,,,0.02,WUHU216HW,2013-07-04 11:47:00,
2013-07-04 03:52:00,47.6,43.9,29.62,SSW,203,0.0,0.0,87,0.02,,,0.02,WUHU216HW,2013-07-04 11:52:00,
2013-07-04 03:57:00,47.4,43.8,29.62,SSW,203,0.0,0.0,87,0.02,,,0.02,WUHU216HW,2013-07-04 11:57:00,
2013-07-04 04:02:00,47.4,43.8,29.62,SSW,203,0.0,0.0,87,0.00,,,0.02,WUHU216HW,2013-07-04 12:02:00,
2013-07-04 04:07:00,47.4,43.8,29.62,SSW,203,0.0,0.0,87,0.00,,,0.02,WUHU216HW,2013-07-04 12:07:00,
2013-07-04 04:12:00,47.4,43.8,29.62,SSW,203,0.0,0.0,87,0.00,,,0.02,WUHU216HW,2013-07-04 12:12:00,
2013-07-04 04:17:00,47.3,43.9,29.62,SSW,203,0.0,0.0,88,0.00,,,0.02,WUHU216HW,2013-07-04 12:17:00,
2013-07-04 04:22:00,47.3,43.9,29.62,SSW,203,0.0,0.0,88,0.00,,,0.02,WUHU216HW,2013-07-04 12:22:00,
2013-07-04 04:27:00,47.3,43.9,29.62,SSW,203,0.0,0.0,88,0.00,,,0.02,WUHU216HW,2013-07-04 12:27:00,
2013-07-04 04:32:00,47.3,43.9,29.62,SSW,203,0.0,0.0,88,0.00,,,0.02,WUHU216HW,2013-07-04 12:32:00,
2013-07-04 04:37:00,47.3,43.9,29.62,SSW,203,0.0,1.1,88,0.00,,,0.02,WUHU216HW,2013-07-04 12:37:00,
2013-07-04 04:42:00,47.1,43.7,29.62,SSW,203,0.0,1.1,88,0.00,,,0.02,WUHU216HW,2013-07-04 12:42:00,
2013-07-04 04:47:00,47.1,43.7,29.62,SSW,203,0.0,0.0,88,0.00,,,0.02,WUHU216HW,2013-07-04 12:47:00,
2013-07-04 04:52:00,47.1,43.7,29.62,SSW,203,0.0,0.0,88,0.00,,,0.02,WUHU216HW,2013-07-04 12:52:00,
2013-07-04 04:57:00,47.1,43.7,29.62,SSW,203,0.0,0.0,88,0.00,,,0.02,WUHU216HW,2013-07-04 12:57:00,
2013-07-04 05:02:00,47.1,43.7,29.62,ENE,68,0.0,0.0,88,0.00,,,0.02,WUHU216HW,2013-07-04 13:02:00,
2013-07-04 05:07:00,47.1,43.7,29.62,ENE,68,0.0,0.0,88,0.02,,,0.02,WUHU216HW,2013-07-04 13:07:00,
2013-07-04 05:12:00,47.1,43.7,29.62,NE,45,0.0,0.6,88,0.02,,,0.04,WUHU216HW,2013-07-04 13:12:00,
2013-07-04 05:17:00,46.9,43.6,29.62,ESE,113,0.0,0.6,88,0.02,,,0.04,WUHU216HW,2013-07-04 13:17:00,
2013-07-04 05:22:00,46.9,43.9,29.62,ESE,113,0.0,0.0,89,0.02,,,0.04,WUHU216HW,2013-07-04 13:22:00,
2013-07-04 05:27:00,46.9,43.9,29.62,ESE,113,0.0,0.0,89,0.02,,,0.04,WUHU216HW,2013-07-04 13:27:00,
2013-07-04 05:32:00,46.9,43.9,29.62,ESE,113,0.0,0.0,89,0.02,,,0.04,WUHU216HW,2013-07-04 13:32:00,
2013-07-04 05:37:00,46.7,43.7,29.62,ESE,113,0.0,0.0,89,0.02,,,0.04,WUHU216HW,2013-07-04 13:37:00,
2013-07-04 05:42:00,46.7,43.7,29.62,ESE,113,0.0,0.0,89,0.02,,,0.04,WUHU216HW,2013-07-04 13:42:00,
2013-07-04 05:47:00,46.7,43.7,29.62,ESE,113,0.0,0.0,89,0.02,,,0.04,WUHU216HW,2013-07-04 13:47:00,
2013-07-04 05:52:00,46.7,43.7,29.62,ESE,113,0.0,0.0,89,0.02,,,0.04,WUHU216HW,2013-07-04 13:52:00,
2013-07-04 05:57:00,46.7,43.7,29.62,ESE,113,0.0,0.0,89,0.02,,,0.04,WUHU216HW,2013-07-04 13:57:00,
2013-07-04 06:02:00,46.7,43.7,29.62,ESE,113,0.0,0.0,89,0.04,,,0.07,WUHU216HW,2013-07-04 14:02:00,
2013-07-04 06:07:00,46.7,43.7,29.62,ESE,113,0.0,0.0,89,0.02,,,0.07,WUHU216HW,2013-07-04 14:07:00,
2013-07-04 06:12:00,46.9,43.9,29.61,ESE,113,0.0,0.0,89,0.02,,,0.07,WUHU216HW,2013-07-04 14:12:00,
2013-07-04 06:17:00,46.9,43.9,29.61,ESE,113,0.0,0.0,89,0.02,,,0.07,WUHU216HW,2013-07-04 14:17:00,
2013-07-04 06:22:00,46.9,43.9,29.61,ENE,68,0.0,0.0,89,0.02,,,0.07,WUHU216HW,2013-07-04 14:22:00,
2013-07-04 06:27:00,46.9,43.9,29.61,ENE,68,0.0,0.0,89,0.02,,,0.07,WUHU216HW,2013-07-04 14:27:00,
2013-07-04 06:32:00,46.9,43.9,29.61,NE,45,0.0,0.0,89,0.02,,,0.07,WUHU216HW,2013-07-04 14:32:00,
2013-07-04 06:37:00,46.9,43.9,29.61,NE,45,0.0,0.0,89,0.02,,,0.07,WUHU216HW,2013-07-04 14:37:00,
2013-07-04 06:42:00,46.9,43.9,29.61,NE,45,0.2,0.2,89,0.02,,,0.07,WUHU216HW,2013-07-04 14:42:00,
2013-07-04 06:47:00,46.9,43.9,29.61,NE,45,0.0,0.2,89,0.02,,,0.07,WUHU216HW,2013-07-04 14:47:00,
2013-07-04 06:52:00,47.1,44.0,29.61,ENE,68,0.0,0.2,89,0.02,,,0.07,WUHU216HW,2013-07-04 14:52:00,
2013-07-04 06:57:00,47.1,44.0,29.61,ENE,68,0.0,0.0,89,0.02,,,0.07,WUHU216HW,2013-07-04 14:57:00,
2013-07-04 07:02:00,47.1,44.0,29.61,ENE,68,0.0,0.0,89,0.00,,,0.07,WUHU216HW,2013-07-04 15:02:00,
2013-07-04 07:07:00,47.1,44.0,29.61,ENE,68,0.0,0.0,89,0.00,,,0.07,WUHU216HW,2013-07-04 15:07:00,
2013-07-04 07:12:00,47.3,44.2,29.62,ENE,68,0.0,0.0,89,0.00,,,0.07,WUHU216HW,2013-07-04 15:12:00,
2013-07-04 07:17:00,47.4,44.4,29.62,ENE,68,0.0,0.0,89,0.00,,,0.07,WUHU216HW,2013-07-04 15:17:00,
2013-07-04 07:22:00,47.8,44.8,29.62,ENE,68,0.0,0.0,89,0.00,,,0.07,WUHU216HW,2013-07-04 15:22:00,
2013-07-04 07:27:00,47.8,44.8,29.62,ENE,68,0.0,0.0,89,0.00,,,0.07,WUHU216HW,2013-07-04 15:27:00,
2013-07-04 07:32:00,48.0,44.9,29.62,ENE,68,0.0,0.0,89,0.00,,,0.07,WUHU216HW,2013-07-04 15:32:00,
2013-07-04 07:37:00,48.0,44.9,29.62,ENE,68,0.0,0.0,89,0.00,,,0.07,WUHU216HW,2013-07-04 15:37:00,
2013-07-04 07:42:00,48.0,44.9,29.62,ENE,68,0.0,0.0,89,0.00,,,0.07,WUHU216HW,2013-07-04 15:42:00,
2013-07-04 07:47:00,48.0,44.6,29.62,ENE,68,0.0,0.0,88,0.00,,,0.07,WUHU216HW,2013-07-04 15:47:00,
2013-07-04 07:52:00,48.2,44.8,29.62,ENE,68,0.0,0.0,88,0.02,,,0.08,WUHU216HW,2013-07-04 15:52:00,
2013-07-04 07:57:00,48.3,45.0,29.62,ENE,68,0.0,0.0,88,0.02,,,0.08,WUHU216HW,2013-07-04 15:57:00,
2013-07-04 08:02:00,48.5,45.1,29.62,ENE,68,0.0,0.0,88,0.02,,,0.08,WUHU216HW,2013-07-04 16:02:00,
2013-07-04 08:07:00,48.3,45.0,29.63,ENE,68,0.0,0.0,88,0.02,,,0.08,WUHU216HW,2013-07-04 16:07:00,
2013-07-04 08:12:00,48.5,45.1,29.62,ENE,68,0.0,0.0,88,0.02,,,0.08,WUHU216HW,2013-07-04 16:12:00,
2013-07-04 08:17:00,48.5,45.1,29.63,ENE,68,0.0,0.0,88,0.02,,,0.08,WUHU216HW,2013-07-04 16:17:00,
2013-07-04 08:22:00,48.5,45.1,29.62,ENE,68,0.0,0.0,88,0.02,,,0.08,WUHU216HW,2013-07-04 16:22:00,
2013-07-04 08:27:00,48.5,45.1,29.63,ENE,68,0.0,0.0,88,0.04,,,0.10,WUHU216HW,2013-07-04 16:27:00,
2013-07-04 08:32:00,48.5,45.1,29.63,ENE,68,0.0,0.0,88,0.04,,,0.10,WUHU216HW,2013-07-04 16:32:00,
2013-07-04 08:37:00,48.5,45.5,29.62,ENE,68,0.0,0.0,89,0.04,,,0.10,WUHU216HW,2013-07-04 16:37:00,
2013-07-04 08:42:00,48.5,45.5,29.63,ENE,68,0.0,0.0,89,0.06,,,0.12,WUHU216HW,2013-07-04 16:42:00,
2013-07-04 08:47:00,48.7,45.6,29.63,ENE,68,0.0,0.0,89,0.04,,,0.12,WUHU216HW,2013-07-04 16:47:00,
2013-07-04 08:52:00,48.7,45.6,29.63,ENE,68,0.0,0.0,89,0.04,,,0.12,WUHU216HW,2013-07-04 16:52:00,
2013-07-04 08:57:00,48.7,45.6,29.63,ENE,68,0.0,0.0,89,0.04,,,0.12,WUHU216HW,2013-07-04 16:57:00,
2013-07-04 09:02:00,48.9,45.8,29.62,ENE,68,0.0,0.0,89,0.04,,,0.12,WUHU216HW,2013-07-04 17:02:00,
2013-07-04 09:07:00,49.1,45.9,29.63,ENE,68,0.0,0.0,89,0.04,,,0.12,WUHU216HW,2013-07-04 17:07:00,
2013-07-04 09:12:00,49.1,45.9,29.63,ENE,68,0.0,0.0,89,0.04,,,0.12,WUHU216HW,2013-07-04 17:12:00,
2013-07-04 09:17:00,49.1,45.9,29.63,North,0,0.0,0.0,89,0.04,,,0.12,WUHU216HW,2013-07-04 17:17:00,
2013-07-04 09:22:00,49.2,46.1,29.63,ENE,68,0.0,0.0,89,0.02,,,0.12,WUHU216HW,2013-07-04 17:22:00,
2013-07-04 09:27:00,49.1,45.9,29.63,ENE,68,0.0,0.0,89,0.02,,,0.12,WUHU216HW,2013-07-04 17:27:00,
2013-07-04 09:32:00,49.2,46.1,29.63,ENE,68,0.0,0.0,89,0.02,,,0.12,WUHU216HW,2013-07-04 17:32:00,
2013-07-04 09:37:00,49.6,46.4,29.63,ENE,68,0.0,0.0,89,0.02,,,0.12,WUHU216HW,2013-07-04 17:37:00,
2013-07-04 09:42:00,49.6,46.4,29.63,ENE,68,0.0,0.0,89,0.00,,,0.12,WUHU216HW,2013-07-04 17:42:00,
2013-07-04 09:47:00,49.8,46.4,29.63,ENE,68,0.0,0.0,89,0.00,,,0.12,WUHU216HW,2013-07-04 17:47:00,
2013-07-04 09:52:00,49.8,46.6,29.63,ENE,68,0.0,0.0,89,0.00,,,0.12,WUHU216HW,2013-07-04 17:52:00,
2013-07-04 09:57:00,50.1,46.9,29.63,ENE,68,0.0,0.0,89,0.00,,,0.12,WUHU216HW,2013-07-04 17:57:00,
2013-07-04 10:02:00,50.3,47.3,29.63,ENE,68,0.0,0.0,89,0.00,,,0.12,WUHU216HW,2013-07-04 18:02:00,
2013-07-04 10:07:00,50.7,47.5,29.64,ENE,68,0.0,0.0,89,0.00,,,0.12,WUHU216HW,2013-07-04 18:07:00,
2013-07-04 10:12:00,50.9,47.7,29.64,ENE,68,0.0,0.0,89,0.00,,,0.12,WUHU216HW,2013-07-04 18:12:00,
2013-07-04 10:17:00,51.0,47.5,29.64,ENE,68,0.0,0.0,88,0.00,,,0.12,WUHU216HW,2013-07-04 18:17:00,
2013-07-04 10:22:00,51.0,47.5,29.64,ENE,68,0.0,0.0,88,0.00,,,0.12,WUHU216HW,2013-07-04 18:22:00,
2013-07-04 10:27:00,51.4,47.9,29.64,ENE,68,0.0,0.0,88,0.00,,,0.12,WUHU216HW,2013-07-04 18:27:00,
2013-07-04 10:32:00,51.6,48.1,29.64,ENE,68,0.0,0.0,88,0.00,,,0.12,WUHU216HW,2013-07-04 18:32:00,
2013-07-04 10:37:00,51.9,48.4,29.64,ENE,68,0.0,0.0,88,0.00,,,0.12,WUHU216HW,2013-07-04 18:37:00,
2013-07-04 10:42:00,51.9,48.4,29.64,ENE,68,0.0,0.0,88,0.00,,,0.12,WUHU216HW,2013-07-04 18:42:00,
2013-07-04 10:47:00,52.3,48.8,29.64,ENE,68,0.0,0.0,88,0.00,,,0.12,WUHU216HW,2013-07-04 18:47:00,
2013-07-04 10:52:00,52.5,49.0,29.64,ENE,68,0.0,0.0,88,0.00,,,0.12,WUHU216HW,2013-07-04 18:52:00,
2013-07-04 10:57:00,52.5,48.7,29.64,ENE,68,0.0,0.0,87,0.00,,,0.12,WUHU216HW,2013-07-04 18:57:00,
2013-07-04 11:02:00,52.7,48.9,29.64,ENE,68,0.0,0.0,87,0.00,,,0.12,WUHU216HW,2013-07-04 19:02:00,
2013-07-04 11:07:00,53.2,49.4,29.65,ENE,68,0.0,0.0,87,0.00,,,0.12,WUHU216HW,2013-07-04 19:07:00,
2013-07-04 11:12:00,53.4,49.3,29.65,ENE,68,0.0,0.0,86,0.00,,,0.12,WUHU216HW,2013-07-04 19:12:00,
2013-07-04 11:17:00,53.7,49.3,29.65,SW,225,0.8,3.3,85,0.00,,,0.12,WUHU216HW,2013-07-04 19:17:00,
2013-07-04 11:22:00,53.7,49.3,29.65,SSW,203,0.0,3.3,85,0.00,,,0.12,WUHU216HW,2013-07-04 19:22:00,
2013-07-04 11:27:00,53.9,49.5,29.65,SSW,203,0.0,0.8,85,0.00,,,0.12,WUHU216HW,2013-07-04 19:27:00,
2013-07-04 11:32:00,53.7,49.3,29.65,SSW,203,1.7,1.7,85,0.00,,,0.12,WUHU216HW,2013-07-04 19:32:00,
2013-07-04 11:37:00,53.7,49.3,29.65,WSW,248,0.0,1.7,85,0.00,,,0.12,WUHU216HW,2013-07-04 19:37:00,
2013-07-04 11:42:00,53.7,49.3,29.65,WNW,293,0.0,1.7,85,0.00,,,0.12,WUHU216HW,2013-07-04 19:42:00,
2013-07-04 11:47:00,54.1,49.6,29.65,WSW,248,0.0,0.0,85,0.00,,,0.12,WUHU216HW,2013-07-04 19:47:00,
2013-07-04 11:52:00,54.3,49.5,29.65,WSW,248,0.0,0.0,84,0.00,,,0.12,WUHU216HW,2013-07-04 19:52:00,
2013-07-04 11:57:00,54.5,49.7,29.65,NW,315,1.1,1.1,84,0.00,,,0.12,WUHU216HW,2013-07-04 19:57:00,
2013-07-04 12:02:00,54.6,49.5,29.65,WNW,293,0.0,1.1,83,0.00,,,0.12,WUHU216HW,2013-07-04 20:02:00,
2013-07-04 12:07:00,54.8,49.7,29.65,WNW,293,0.0,0.0,83,0.00,,,0.12,WUHU216HW,2013-07-04 20:07:00,
2013-07-04 12:12:00,55.2,50.0,29.65,WNW,293,0.0,0.0,83,0.00,,,0.12,WUHU216HW,2013-07-04 20:12:00,
2013-07-04 12:17:00,55.5,50.1,29.65,WNW,293,0.0,0.0,82,0.00,,,0.12,WUHU216HW,2013-07-04 20:17:00,
2013-07-04 12:22:00,55.7,49.9,29.65,WNW,293,0.0,0.0,81,0.00,,,0.12,WUHU216HW,2013-07-04 20:22:00,
2013-07-04 12:27:00,55.7,49.9,29.65,WNW,293,0.0,0.0,81,0.00,,,0.12,WUHU216HW,2013-07-04 20:27:00,
2013-07-04 12:32:00,55.7,49.9,29.65,WNW,293,0.0,0.0,81,0.00,,,0.12,WUHU216HW,2013-07-04 20:32:00,
2013-07-04 12:37:00,55.9,49.8,29.65,WNW,293,0.0,0.0,80,0.00,,,0.12,WUHU216HW,2013-07-04 20:37:00,
2013-07-04 12:42:00,56.1,50.0,29.65,WNW,293,0.0,0.0,80,0.00,,,0.12,WUHU216HW,2013-07-04 20:42:00,
2013-07-04 12:47:00,56.1,50.1,29.65,WNW,293,0.0,0.0,80,0.00,,,0.12,WUHU216HW,2013-07-04 20:47:00,
2013-07-04 12:52:00,56.3,49.8,29.65,WNW,293,0.0,0.0,79,0.00,,,0.12,WUHU216HW,2013-07-04 20:52:00,
2013-07-04 12:57:00,56.4,49.6,29.65,NNW,338,0.0,0.0,78,0.00,,,0.12,WUHU216HW,2013-07-04 20:57:00,
2013-07-04 13:02:00,56.6,49.8,29.65,NW,315,0.0,0.0,78,0.00,,,0.12,WUHU216HW,2013-07-04 21:02:00,
2013-07-04 13:07:00,56.8,50.0,29.65,WNW,293,0.6,0.6,78,0.00,,,0.12,WUHU216HW,2013-07-04 21:07:00,
2013-07-04 13:12:00,56.8,49.6,29.65,NW,315,0.0,0.6,77,0.00,,,0.12,WUHU216HW,2013-07-04 21:12:00,
2013-07-04 13:17:00,57.0,50.0,29.65,WNW,293,1.1,1.1,78,0.00,,,0.12,WUHU216HW,2013-07-04 21:17:00,
2013-07-04 13:22:00,57.0,49.8,29.65,WNW,293,0.0,1.1,77,0.00,,,0.12,WUHU216HW,2013-07-04 21:22:00,
2013-07-04 13:27:00,57.3,50.1,29.65,WNW,293,0.0,1.1,77,0.00,,,0.12,WUHU216HW,2013-07-04 21:27:00,
2013-07-04 13:32:00,57.3,50.1,29.65,WNW,293,0.0,0.6,77,0.00,,,0.12,WUHU216HW,2013-07-04 21:32:00,
2013-07-04 13:37:00,57.3,50.1,29.66,WNW,293,0.0,0.0,77,0.00,,,0.12,WUHU216HW,2013-07-04 21:37:00,
2013-07-04 13:42:00,57.2,49.6,29.65,WNW,293,0.0,0.0,76,0.00,,,0.12,WUHU216HW,2013-07-04 21:42:00,
2013-07-04 13:47:00,56.8,49.2,29.66,WNW,293,0.0,1.1,76,0.00,,,0.12,WUHU216HW,2013-07-04 21:47:00,
2013-07-04 13:52:00,56.8,49.2,29.66,NW,315,0.2,1.1,76,0.00,,,0.12,WUHU216HW,2013-07-04 21:52:00,
2013-07-04 13:57:00,56.8,49.2,29.66,NW,315,0.0,0.2,76,0.00,,,0.12,WUHU216HW,2013-07-04 21:57:00,
2013-07-04 14:02:00,56.8,49.2,29.66,NW,315,0.0,0.2,76,0.00,,,0.12,WUHU216HW,2013-07-04 22:02:00,
2013-07-04 14:07:00,56.8,49.2,29.66,WNW,293,0.0,3.1,76,0.00,,,0.12,WUHU216HW,2013-07-04 22:07:00,
2013-07-04 14:13:00,56.6,49.4,29.66,West,270,0.0,3.1,77,0.00,,,0.12,WUHU216HW,2013-07-04 22:13:00,
2013-07-04 14:18:00,56.3,49.1,29.66,West,270,0.0,0.6,77,0.00,,,0.12,WUHU216HW,2013-07-04 22:18:00,
2013-07-04 14:23:00,56.1,49.2,29.66,WNW,293,0.4,0.6,78,0.00,,,0.12,WUHU216HW,2013-07-04 22:23:00,
2013-07-04 14:28:00,55.9,49.1,29.66,WNW,293,3.5,3.5,78,0.00,,,0.12,WUHU216HW,2013-07-04 22:28:00,
2013-07-04 14:33:00,55.9,48.7,29.66,WNW,293,0.0,3.5,78,0.00,,,0.12,WUHU216HW,2013-07-04 22:33:00,
2013-07-04 14:38:00,55.4,48.7,29.67,WNW,293,0.8,1.7,78,0.00,,,0.12,WUHU216HW,2013-07-04 22:38:00,
2013-07-04 14:43:00,55.2,48.4,29.67,WNW,293,0.0,0.8,78,0.00,,,0.12,WUHU216HW,2013-07-04 22:43:00,
2013-07-04 14:48:00,55.2,48.7,29.66,NW,315,3.3,3.3,79,0.00,,,0.12,WUHU216HW,2013-07-04 22:48:00,
2013-07-04 14:53:00,55.0,48.5,29.66,NW,315,1.5,3.3,79,0.00,,,0.12,WUHU216HW,2013-07-04 22:53:00,
2013-07-04 14:58:00,55.0,48.5,29.66,NW,315,0.2,3.3,79,0.00,,,0.12,WUHU216HW,2013-07-04 22:58:00,
2013-07-04 15:03:00,55.2,48.7,29.66,WNW,293,0.0,1.5,79,0.00,,,0.12,WUHU216HW,2013-07-04 23:03:00,
2013-07-04 15:08:00,55.2,48.7,29.67,WSW,248,0.0,1.7,79,0.00,,,0.12,WUHU216HW,2013-07-04 23:08:00,
2013-07-04 15:13:00,55.2,48.7,29.67,West,270,0.0,1.7,79,0.00,,,0.12,WUHU216HW,2013-07-04 23:13:00,
2013-07-04 15:18:00,55.2,48.7,29.67,WNW,293,3.8,3.8,79,0.00,,,0.12,WUHU216HW,2013-07-04 23:18:00,
2013-07-04 15:23:00,55.2,48.4,29.67,WNW,293,1.7,3.8,78,0.00,,,0.12,WUHU216HW,2013-07-04 23:23:00,
2013-07-04 15:28:00,55.2,48.4,29.67,NW,315,0.0,2.4,78,0.00,,,0.12,WUHU216HW,2013-07-04 23:28:00,
2013-07-04 15:33:00,55.5,48.7,29.67,NW,315,4.0,4.0,78,0.00,,,0.12,WUHU216HW,2013-07-04 23:33:00,
2013-07-04 15:38:00,55.9,49.1,29.67,NW,315,5.5,5.5,78,0.00,,,0.12,WUHU216HW,2013-07-04 23:38:00,
2013-07-04 15:43:00,56.3,49.1,29.67,West,270,1.5,6.9,77,0.00,,,0.12,WUHU216HW,2013-07-04 23:43:00,
2013-07-04 15:48:00,56.4,48.9,29.66,NW,315,3.8,6.9,76,0.00,,,0.12,WUHU216HW,2013-07-04 23:48:00,
2013-07-04 15:53:00,56.4,48.9,29.67,WSW,248,0.0,3.8,76,0.00,,,0.12,WUHU216HW,2013-07-04 23:53:00,
2013-07-04 15:58:00,56.3,48.7,29.67,WNW,293,3.3,3.3,76,0.00,,,0.12,WUHU216HW,2013-07-04 23:58:00,
2013-07-04 16:03:00,56.3,48.7,29.66,WNW,293,0.0,3.3,76,0.00,,,0.12,WUHU216HW,2013-07-05 00:03:00,
2013-07-04 16:08:00,56.1,48.5,29.67,SW,225,0.0,3.3,76,0.00,,,0.12,WUHU216HW,2013-07-05 00:08:00,
2013-07-04 16:13:00,55.9,48.4,29.67,WNW,293,0.0,3.1,76,0.00,,,0.12,WUHU216HW,2013-07-05 00:13:00,
2013-07-04 16:18:00,55.9,48.0,29.67,WNW,293,0.0,2.9,75,0.00,,,0.12,WUHU216HW,2013-07-05 00:18:00,
2013-07-04 16:23:00,55.7,47.9,29.67,WNW,293,4.4,4.4,75,0.00,,,0.12,WUHU216HW,2013-07-05 00:23:00,
2013-07-04 16:28:00,55.4,47.5,29.67,WNW,293,0.0,4.4,75,0.00,,,0.12,WUHU216HW,2013-07-05 00:28:00,
2013-07-04 16:33:00,55.2,47.7,29.68,NW,315,2.6,2.6,76,0.00,,,0.12,WUHU216HW,2013-07-05 00:33:00,
2013-07-04 16:38:00,55.2,47.7,29.68,WNW,293,1.7,2.6,76,0.00,,,0.12,WUHU216HW,2013-07-05 00:38:00,
2013-07-04 16:43:00,55.0,47.5,29.67,WNW,293,0.0,1.7,76,0.00,,,0.12,WUHU216HW,2013-07-05 00:43:00,
2013-07-04 16:48:00,55.0,47.9,29.67,NW,315,1.3,1.3,77,0.00,,,0.12,WUHU216HW,2013-07-05 00:48:00,
2013-07-04 16:53:00,54.8,47.7,29.67,NW,315,0.0,1.3,77,0.00,,,0.12,WUHU216HW,2013-07-05 00:53:00,
2013-07-04 16:58:00,54.8,47.7,29.67,WNW,293,0.0,2.0,77,0.00,,,0.12,WUHU216HW,2013-07-05 00:58:00,
2013-07-04 17:03:00,54.6,47.5,29.67,WNW,293,0.0,2.2,77,0.00,,,0.12,WUHU216HW,2013-07-05 01:03:00,
2013-07-04 17:08:00,54.3,47.2,29.67,WNW,293,0.0,2.2,77,0.00,,,0.12,WUHU216HW,2013-07-05 01:08:00,
2013-07-04 17:13:00,54.3,47.2,29.67,WNW,293,0.0,0.0,77,0.00,,,0.12,WUHU216HW,2013-07-05 01:13:00,
2013-07-04 17:18:00,54.1,47.0,29.67,WNW,293,0.0,0.0,77,0.00,,,0.12,WUHU216HW,2013-07-05 01:18:00,
2013-07-04 17:23:00,53.9,46.9,29.67,WNW,293,2.6,2.6,77,0.00,,,0.12,WUHU216HW,2013-07-05 01:23:00,
2013-07-04 17:28:00,53.7,46.7,29.68,WNW,293,0.0,2.6,77,0.00,,,0.12,WUHU216HW,2013-07-05 01:28:00,
2013-07-04 17:33:00,53.7,47.1,29.68,WNW,293,0.0,0.0,78,0.00,,,0.12,WUHU216HW,2013-07-05 01:33:00,
2013-07-04 17:38:00,53.7,47.1,29.67,WNW,293,0.0,0.0,78,0.00,,,0.12,WUHU216HW,2013-07-05 01:38:00,
2013-07-04 17:43:00,53.7,47.1,29.67,NW,315,0.0,0.0,78,0.00,,,0.12,WUHU216HW,2013-07-05 01:43:00,
2013-07-04 17:48:00,53.7,47.1,29.67,NW,315,0.0,0.0,78,0.00,,,0.12,WUHU216HW,2013-07-05 01:48:00,
2013-07-04 17:53:00,53.7,47.1,29.67,NW,315,0.0,0.0,78,0.00,,,0.12,WUHU216HW,2013-07-05 01:53:00,
2013-07-04 17:58:00,53.7,47.1,29.67,NW,315,0.0,0.0,78,0.00,,,0.12,WUHU216HW,2013-07-05 01:58:00,
2013-07-04 18:03:00,53.9,47.6,29.68,WNW,293,0.8,0.8,79,0.00,,,0.12,WUHU216HW,2013-07-05 02:03:00,
2013-07-04 18:08:00,54.1,47.7,29.67,WNW,293,0.0,1.7,79,0.00,,,0.12,WUHU216HW,2013-07-05 02:08:00,
2013-07-04 18:13:00,53.9,47.2,29.68,WNW,293,0.0,1.7,78,0.00,,,0.12,WUHU216HW,2013-07-05 02:13:00,
2013-07-04 18:18:00,53.7,47.1,29.68,NW,315,0.0,1.1,78,0.00,,,0.12,WUHU216HW,2013-07-05 02:18:00,
2013-07-04 18:23:00,53.7,47.1,29.68,SW,225,0.0,2.9,78,0.00,,,0.12,WUHU216HW,2013-07-05 02:23:00,
2013-07-04 18:28:00,53.7,47.1,29.68,NW,315,0.0,2.9,78,0.00,,,0.12,WUHU216HW,2013-07-05 02:28:00,
2013-07-04 18:33:00,53.7,47.1,29.68,NW,315,0.0,0.0,78,0.00,,,0.12,WUHU216HW,2013-07-05 02:33:00,
2013-07-04 18:38:00,53.4,46.7,29.67,WSW,248,0.0,0.0,78,0.00,,,0.12,WUHU216HW,2013-07-05 02:38:00,
2013-07-04 18:43:00,53.4,46.7,29.67,WNW,293,0.0,0.0,78,0.00,,,0.12,WUHU216HW,2013-07-05 02:43:00,
2013-07-04 18:48:00,53.4,46.7,29.68,WNW,293,0.0,0.0,78,0.00,,,0.12,WUHU216HW,2013-07-05 02:48:00,
2013-07-04 18:53:00,53.2,46.9,29.68,WNW,293,0.0,0.0,79,0.00,,,0.12,WUHU216HW,2013-07-05 02:53:00,
2013-07-04 18:58:00,53.2,46.9,29.68,WNW,293,0.0,0.0,79,0.00,,,0.12,WUHU216HW,2013-07-05 02:58:00,
2013-07-04 19:03:00,52.8,46.5,29.68,West,270,0.0,0.0,79,0.00,,,0.12,WUHU216HW,2013-07-05 03:03:00,
2013-07-04 19:08:00,52.8,46.5,29.68,West,270,0.0,0.0,79,0.00,,,0.12,WUHU216HW,2013-07-05 03:08:00,
2013-07-04 19:13:00,52.7,46.7,29.68,WNW,293,0.0,0.6,80,0.00,,,0.12,WUHU216HW,2013-07-05 03:13:00,
2013-07-04 19:18:00,52.5,46.5,29.68,WNW,293,0.0,0.6,80,0.00,,,0.12,WUHU216HW,2013-07-05 03:18:00,
2013-07-04 19:23:00,52.3,46.4,29.68,WNW,293,0.0,0.0,80,0.00,,,0.12,WUHU216HW,2013-07-05 03:23:00,
2013-07-04 19:28:00,52.3,46.4,29.67,NNW,338,0.0,0.0,80,0.00,,,0.12,WUHU216HW,2013-07-05 03:28:00,
2013-07-04 19:33:00,52.3,46.4,29.67,NNW,338,0.0,1.1,80,0.00,,,0.12,WUHU216HW,2013-07-05 03:33:00,
2013-07-04 19:38:00,52.3,46.4,29.68,North,0,0.0,2.2,80,0.00,,,0.12,WUHU216HW,2013-07-05 03:38:00,
2013-07-04 19:43:00,52.3,46.4,29.68,North,0,1.3,2.2,80,0.00,,,0.12,WUHU216HW,2013-07-05 03:43:00,
2013-07-04 19:48:00,52.1,46.5,29.68,North,0,0.0,1.3,81,0.00,,,0.12,WUHU216HW,2013-07-05 03:48:00,
2013-07-04 19:53:00,52.1,46.5,29.68,North,0,0.0,1.3,81,0.00,,,0.12,WUHU216HW,2013-07-05 03:53:00,
2013-07-04 19:58:00,52.1,46.5,29.67,North,0,0.0,0.0,81,0.00,,,0.12,WUHU216HW,2013-07-05 03:58:00,
2013-07-04 20:01:00,51.9,46.3,29.68,North,0,0.0,0.0,81,0.00,,,0.12,WUHU216HW,2013-07-05 04:01:00,
2013-07-04 20:06:00,52.1,46.5,29.68,North,0,0.0,0.0,81,0.00,,,0.12,WUHU216HW,2013-07-05 04:06:00,
2013-07-04 20:11:00,51.9,46.3,29.67,North,0,0.0,0.0,81,0.00,,,0.12,WUHU216HW,2013-07-05 04:11:00,
2013-07-04 20:16:00,51.9,46.3,29.67,North,0,0.0,0.0,81,0.00,,,0.12,WUHU216HW,2013-07-05 04:16:00,
2013-07-04 20:21:00,51.9,46.3,29.67,North,0,0.0,0.0,81,0.00,,,0.12,WUHU216HW,2013-07-05 04:21:00,
2013-07-04 20:26:00,51.9,46.3,29.67,North,0,0.0,0.0,81,0.00,,,0.12,WUHU216HW,2013-07-05 04:26:00,
2013-07-04 20:31:00,51.9,46.3,29.68,North,0,0.0,0.0,81,0.00,,,0.12,WUHU216HW,2013-07-05 04:31:00,
2013-07-04 20:36:00,51.8,46.1,29.67,North,0,0.0,0.0,81,0.00,,,0.12,WUHU216HW,2013-07-05 04:36:00,
2013-07-04 20:41:00,51.8,46.1,29.68,North,0,0.0,0.0,81,0.00,,,0.12,WUHU216HW,2013-07-05 04:41:00,
2013-07-04 20:46:00,51.8,46.1,29.68,North,0,0.0,0.0,81,0.00,,,0.12,WUHU216HW,2013-07-05 04:46:00,
2013-07-04 20:51:00,51.6,45.9,29.67,North,0,0.0,0.0,81,0.00,,,0.12,WUHU216HW,2013-07-05 04:51:00,
2013-07-04 20:56:00,51.6,45.9,29.67,North,0,0.0,0.0,81,0.00,,,0.12,WUHU216HW,2013-07-05 04:56:00,
2013-07-04 21:01:00,51.6,46.2,29.68,North,0,0.0,0.0,82,0.00,,,0.12,WUHU216HW,2013-07-05 05:01:00,
2013-07-04 21:06:00,51.6,46.2,29.67,North,0,0.0,0.0,82,0.00,,,0.12,WUHU216HW,2013-07-05 05:06:00,
2013-07-04 21:11:00,51.6,46.2,29.67,North,0,0.0,0.0,82,0.00,,,0.12,WUHU216HW,2013-07-05 05:11:00,
2013-07-04 21:16:00,51.4,46.1,29.67,North,0,0.0,0.0,82,0.00,,,0.12,WUHU216HW,2013-07-05 05:16:00,
2013-07-04 21:21:00,51.4,46.1,29.67,North,0,0.0,0.0,82,0.00,,,0.12,WUHU216HW,2013-07-05 05:21:00,
2013-07-04 21:26:00,51.4,46.1,29.68,North,0,0.0,0.0,82,0.00,,,0.12,WUHU216HW,2013-07-05 05:26:00,